DateTimeUTC,F1_A11,F1_S11,BsB_S11,BsG_S11,BsR_S11,BbsB_S11,BbsG_S11,BbsR_S11,BaB_A11,BaG_A11,BaR_A11,Tu_S11,T_S11,Uu_S11,U_S11,P_S11,T1_A11
2021-06-27T06:00:00Z,00000200,20000000,,,,,,,-000.05,-000.02,-000.17,18.3,25.4,01.5,01.0,0671.0,31.1
2021-06-27T06:01:00Z,00000200,20000000,,,,,,,0000.13,-000.21,0000.12,18.3,25.4,01.5,01.0,0671.0,31.1
2021-06-27T06:02:00Z,00000200,20000000,,,,,,,0000.11,0000.17,0000.03,18.2,25.4,01.6,01.0,0671.0,31.1
2021-06-27T06:03:00Z,00000200,60000000,,,,,,,0000.27,0000.47,0000.54,18.2,25.4,01.6,01.0,0671.0,31.1
2021-06-27T06:04:00Z,00000200,41000000,0000.26,0000.12,0000.00,-000.29,-000.02,0000.08,0000.24,-000.31,-000.09,18.4,25.2,01.8,01.2,0671.9,31.1
2021-06-27T06:05:00Z,00000200,01000000,-000.10,-000.14,0000.30,0000.37,0000.10,0000.25,0000.03,0000.40,0000.15,18.5,25.1,01.9,01.3,0672.0,31.1
2021-06-27T06:06:00Z,00000200,00000000,0000.05,-000.01,0000.10,0000.33,0000.18,0000.22,0000.15,0000.34,-000.10,18.6,25.1,02.0,01.3,0672.0,31.1
2021-06-27T06:07:00Z,00000200,00000000,-000.50,-000.23,0000.12,-000.03,0000.05,-000.18,-000.09,-000.34,0000.11,18.6,25.2,02.0,01.3,0672.0,31.1
2021-06-27T06:08:00Z,00000200,01000000,0000.07,0000.11,-000.10,0000.23,0000.17,0000.04,-000.02,0000.04,-000.20,18.7,25.2,02.0,01.3,0672.0,31.1
2021-06-27T06:09:00Z,00000200,01000000,0000.01,-000.18,0000.26,-000.01,0000.07,0000.41,-000.12,-000.04,0000.05,18.7,25.2,02.0,01.3,0672.0,31.2
2021-06-27T06:10:00Z,00000200,00000000,0000.39,0000.15,0000.07,0000.10,-000.09,0000.25,-000.03,-000.06,-000.03,18.6,25.2,02.0,01.3,0672.0,31.1
2021-06-27T06:11:00Z,00000200,00000000,-000.13,-000.03,0000.21,-000.07,-000.05,0000.24,0000.12,-000.11,-000.10,18.6,25.2,02.0,01.4,0672.0,31.1
2021-06-27T06:12:00Z,00000200,00000000,0000.44,0000.09,0000.14,0000.11,-000.18,0000.16,-000.25,0000.12,-000.09,18.5,25.1,02.1,01.4,0671.9,31.1
2021-06-27T06:13:00Z,00000200,00000000,0000.32,-000.07,-000.05,0000.25,-000.13,0000.33,0000.26,-000.13,0000.09,18.5,25.1,02.1,01.4,0671.9,31.1
2021-06-27T06:14:00Z,00000200,00000000,0000.25,-000.05,-000.09,-000.28,0000.29,0000.01,-000.06,0000.17,0000.07,18.4,25.1,02.3,01.5,0671.9,31.1
2021-06-27T06:15:00Z,00000200,00000000,0000.48,-000.08,-000.06,0000.25,-000.22,0000.08,0000.05,-000.08,-000.08,18.4,25.1,02.4,01.6,0671.9,31.1
2021-06-27T06:16:00Z,00000200,00000000,0000.20,0000.07,-000.07,0000.04,0000.22,0000.22,-000.10,-000.08,0000.14,18.3,25.0,02.3,01.5,0671.9,31.1
2021-06-27T06:17:00Z,00000200,00000000,0000.59,0000.11,0000.22,0000.18,0000.04,-000.18,0000.25,0000.35,0000.15,18.3,25.0,02.3,01.6,0671.9,31.1
2021-06-27T06:18:00Z,00000200,00000000,0000.95,-000.18,0000.04,0000.22,0000.03,0000.10,0000.51,0000.43,-000.03,18.3,25.0,02.4,01.6,0671.8,31.1
2021-06-27T06:19:00Z,00000200,00000000,0000.49,-000.34,0000.02,0000.68,-000.07,0000.25,0000.27,0000.05,0000.37,18.4,25.0,02.4,01.6,0671.8,31.1
2021-06-27T06:20:00Z,00000200,00000000,-000.01,-000.01,0000.10,0000.13,0000.10,-000.06,0000.05,0000.15,0000.18,18.5,25.0,02.4,01.6,0671.8,31.1
2021-06-27T06:21:00Z,00000200,00000000,-000.04,-000.29,0000.30,0000.19,-000.03,-000.03,-000.03,0000.02,-000.08,18.6,25.1,02.4,01.6,0671.8,31.1
2021-06-27T06:22:00Z,00000200,00000000,0000.62,-000.01,-000.07,-000.48,-000.08,0000.14,0000.23,0000.07,0000.29,18.6,25.1,02.4,01.6,0671.9,31.1
2021-06-27T06:23:00Z,00000200,00000000,-000.33,0000.12,-000.16,0000.17,0000.00,-000.02,-000.14,0000.38,-000.13,18.7,25.1,02.4,01.6,0671.9,31.1
2021-06-27T06:24:00Z,00000200,00000000,0000.22,-000.00,0000.10,0000.32,0000.21,0000.30,-000.28,-000.58,-000.43,18.7,25.1,02.4,01.6,0671.8,31.2
2021-06-27T06:25:00Z,00000200,00000000,0000.42,-000.06,0000.06,-000.24,-000.02,0000.08,-000.09,-000.02,0000.11,18.6,25.1,02.4,01.6,0671.8,31.1
2021-06-27T06:26:00Z,00000200,00000000,-000.26,0000.33,0000.10,0000.03,0000.02,0000.41,0000.03,-000.14,-000.29,18.6,25.1,02.4,01.6,0671.8,31.1
2021-06-27T06:27:00Z,00000200,00000000,-000.06,-000.09,-000.10,0000.06,-000.08,0000.22,-000.42,-000.31,0000.04,18.5,25.1,02.4,01.6,0671.8,31.1
2021-06-27T06:28:00Z,00000200,00000000,-000.01,-000.28,-000.18,0000.07,-000.00,-000.15,0000.32,0000.25,-000.20,18.5,25.1,02.4,01.6,0671.8,31.1
2021-06-27T06:29:00Z,00000200,00000000,0000.87,-000.10,0000.20,0000.28,-000.04,0000.01,-000.05,-000.17,0000.26,18.4,25.0,02.4,01.6,0671.8,31.1
2021-06-27T06:30:00Z,00000200,00000000,0000.24,0000.18,0000.23,-000.05,0000.05,-000.15,0000.08,-000.11,-000.22,18.4,25.0,02.4,01.6,0671.8,31.1
2021-06-27T06:31:00Z,00000200,00000000,0000.71,-000.27,-000.18,0000.58,0000.20,0000.15,0000.23,0000.22,0000.40,18.3,25.0,02.4,01.6,0671.7,31.1
2021-06-27T06:32:00Z,00000200,00000000,0000.45,0000.09,0000.13,-000.28,-000.12,-000.03,-000.10,0000.11,-000.21,18.3,24.9,02.5,01.6,0671.7,31.1
2021-06-27T06:33:00Z,00000200,00000000,0000.25,0000.19,0000.18,-000.02,0000.19,0000.24,0000.30,0000.25,0000.33,18.3,24.9,02.5,01.7,0671.7,31.1
2021-06-27T06:34:00Z,00000200,00000000,-000.64,-000.10,-000.07,-000.26,0000.07,0000.01,-000.26,-000.02,-000.04,18.4,25.0,02.6,01.7,0671.7,31.1
2021-06-27T06:35:00Z,00000200,00000000,0000.36,0000.08,0000.22,0000.36,0000.15,0000.24,0000.32,0000.05,0000.42,18.5,25.0,02.5,01.7,0671.7,31.1
2021-06-27T06:36:00Z,00000200,00000000,0000.54,-000.15,-000.04,0000.13,0000.05,-000.15,-000.06,0000.27,0000.22,18.5,25.0,02.5,01.7,0671.8,31.1
2021-06-27T06:37:00Z,00000200,00000000,0000.73,-000.02,-000.23,-000.06,-000.13,-000.16,0000.06,-000.19,0000.03,18.6,25.0,02.4,01.6,0671.8,31.1
2021-06-27T06:38:00Z,00000200,00000000,0000.95,-000.29,0000.27,0000.02,-000.05,0000.40,0000.12,0000.19,-000.41,18.7,25.1,02.4,01.7,0671.8,31.1
2021-06-27T06:39:00Z,00000200,00000000,0000.15,0000.10,0000.06,0000.02,0000.03,0000.02,0000.12,0000.23,-000.13,18.7,25.1,02.5,01.7,0671.8,31.1
2021-06-27T06:40:00Z,00000200,00000000,0000.61,0000.06,-000.14,-000.42,-000.08,-000.10,-000.34,-000.53,-000.09,18.6,25.1,02.6,01.8,0671.7,31.1
2021-06-27T06:41:00Z,00000200,00000000,-000.06,-000.13,0000.21,-000.57,0000.04,0000.02,-000.21,-000.01,-000.20,18.6,25.1,02.4,01.6,0671.7,31.1
2021-06-27T06:42:00Z,00000200,00000000,-000.08,0000.06,0000.17,-000.59,0000.23,-000.05,-000.11,0000.02,0000.10,18.5,25.0,02.4,01.6,0671.7,31.1
2021-06-27T06:43:00Z,00000200,00000000,0000.22,0000.14,-000.03,0000.27,0000.18,0000.03,-000.26,-000.49,-000.27,18.5,25.0,02.4,01.6,0671.7,31.1
2021-06-27T06:44:00Z,00000200,00000000,0000.75,0000.01,-000.07,0000.45,0000.09,0000.13,0000.17,0000.32,0000.05,18.4,25.0,02.5,01.7,0671.7,31.1
2021-06-27T06:45:00Z,00000200,00000000,0000.56,0000.09,0000.33,-000.12,0000.04,0000.12,-000.03,-000.61,0000.14,18.3,24.9,02.4,01.6,0671.7,31.1
2021-06-27T06:46:00Z,00000200,00000000,0000.25,-000.25,-000.15,0000.54,0000.27,-000.20,0000.18,0000.28,-000.27,18.3,24.9,02.5,01.6,0671.7,31.1
2021-06-27T06:47:00Z,00000200,00000000,-000.21,0000.23,0000.19,0000.13,0000.07,0000.12,0000.41,0000.07,0000.39,18.3,24.9,02.4,01.6,0671.7,31.1
2021-06-27T06:48:00Z,00000200,00000000,0000.33,-000.05,0000.05,-000.45,-000.03,0000.25,0000.10,0000.43,0000.05,18.3,24.9,02.5,01.7,0671.7,31.1
2021-06-27T06:49:00Z,00000200,00000000,0000.36,-000.09,0000.06,0000.57,-000.01,0000.12,-000.17,-000.21,0000.17,18.4,24.9,02.4,01.6,0671.7,31.1
2021-06-27T06:50:00Z,00000200,00000000,0000.13,0000.08,-000.03,0000.07,0000.08,0000.08,0000.34,0000.94,0000.21,18.5,24.9,02.5,01.7,0671.6,31.1
2021-06-27T06:51:00Z,00000200,00000000,0000.07,0000.01,-000.27,0000.09,0000.01,-000.29,-000.04,-000.34,-000.02,18.5,25.0,02.4,01.6,0671.6,31.1
2021-06-27T06:52:00Z,00000200,00000000,0000.34,-000.01,-000.37,-000.08,-000.18,-000.10,0000.00,0000.11,-000.17,18.6,25.0,02.4,01.6,0671.6,31.1
2021-06-27T06:53:00Z,00000200,00000000,0000.35,-000.20,0000.13,0000.51,0000.06,0000.30,-000.07,-000.26,0000.10,18.7,25.0,02.4,01.7,0671.6,31.1
2021-06-27T06:54:00Z,00000200,00000000,0000.40,0000.04,0000.34,0000.07,0000.11,0000.35,0000.16,0000.12,0000.15,18.8,25.1,02.4,01.7,0671.7,31.1
2021-06-27T06:55:00Z,00000200,00000000,0000.32,0000.11,0000.07,-000.03,-000.07,-000.05,-000.24,-000.06,-000.18,18.8,25.1,02.4,01.6,0671.6,31.1
2021-06-27T06:56:00Z,00000200,00000000,0000.00,0000.26,0000.18,0000.12,0000.26,-000.03,0000.16,-000.29,-000.11,18.8,25.1,02.4,01.6,0671.6,31.1
2021-06-27T06:57:00Z,00000200,40000000,,,,,,,-000.54,-000.15,0000.02,18.8,25.2,02.2,01.5,0671.6,31.1
2021-06-27T06:58:00Z,00000200,60000000,,,,,,,0000.19,0000.23,-000.01,18.4,25.2,02.3,01.5,0670.6,31.1
2021-06-27T06:59:00Z,00000200,20000000,,,,,,,0000.20,0000.08,0000.39,18.4,25.3,02.3,01.5,0670.6,31.1
